Regional Weather Roundup
Issued by NWS

Home | Current Version | Previous Version | Text Only | Print | Product List | Glossary Off
Versions: 1 2 3 4 5 6 7 8 9 10 11 12 13 14 15 16 17 18 19 20 21 22 23 24 25 26 27 28 29 30 31 32 33 34 35 36 37 38 39 40 41 42 43 44 45 46 47 48 49 50

000
ASUS43 KDTX 220001
RWRMI
MICHIGAN HOURLY REGIONAL WEATHER ROUNDUP
NATIONAL WEATHER SERVICE DETROIT/PONTIAC MI
800 PM EDT THU MAY 21 2015

NOTE: "FAIR" INDICATES FEW OR NO CLOUDS BELOW 12,000 FEET WITH NO
SIGNIFICANT WEATHER AND/OR OBSTRUCTION TO VISIBILITY.

MIZ047>049-052>055-059>063-066>070-074>076-081>083-220100-
SOUTHEAST LOWER MICHIGAN

CITY           SKY/WX    TMP DP  RH WIND       PRES   REMARKS
ADRIAN         CLEAR     62  32  32 NW10G20   29.99S
6HR MIN TEMP:  59; 6HR MAX TEMP:  64;

ALMA           PTCLDY    62  36  37 SW9       29.94S
ANN ARBOR      CLEAR     61  34  36 W14G23    29.96S
BAD AXE        CLOUDY    64  31  29 NW13G21   29.89R
CARO           CLOUDY    64  34  33 W10G17    29.90R
DETROIT CITY   CLEAR     63  34  33 W12G20    29.94S
6HR MIN TEMP:  60; 6HR MAX TEMP:  65;

DETROIT        PTCLDY    63  36  36 W14G22    29.96S
6HR MIN TEMP:  62; 6HR MAX TEMP:  66;

FLINT          CLEAR     63  33  32 W13       29.93S
6HR MIN TEMP:  63; 6HR MAX TEMP:  68;

GROSSE ILE     CLEAR     63  36  36 W8        29.95S
HILLSDALE      CLEAR     60  30  31 W12       30.00R
6HR MIN TEMP:  59; 6HR MAX TEMP:  63;

HOWELL         PTCLDY    59  30  33 W13       29.96R

CITY           SKY/WX    TMP DP  RH WIND       PRES   REMARKS
JACKSON        CLEAR     59  32  36 W8        29.98R
6HR MIN TEMP:  59; 6HR MAX TEMP:  63;

LAMBERTVILLE   CLEAR     63  34  34 W8        29.98F
LANSING        CLEAR     61  34  36 W12       29.97S
6HR MIN TEMP:  61; 6HR MAX TEMP:  64;

LAPEER         FAIR      62  31  30 W9G17     29.92R
MASON          MOCLDY    59  33  36 W8        29.97R
MONROE         CLEAR     63  36  36 W13       29.96R
MT. CLEMENS    PTCLDY    63  37  37 W8G18     29.91S
6HR MIN TEMP:  62; 6HR MAX TEMP:  65;

PONTIAC        PTCLDY    61  32  33 W15       29.94S
6HR MIN TEMP:  60; 6HR MAX TEMP:  64;

PORT HOPE        N/A     65  35  33 W13G21    29.85S
6HR MIN TEMP:  65; 6HR MAX TEMP:  69;

PORT HURON     PTCLDY    63  36  36 W3        29.91S
TRI CITIES     PTCLDY    65  37  35 W17G26    29.91S
6HR MIN TEMP:  65; 6HR MAX TEMP:  70;

MIDLAND        FAIR      65  33  30 W14       29.89S
TROY           CLEAR     64  32  29 W14G20    29.96R
SAGINAW HB     PTCLDY    64  32  29 SW14G20   29.90S
$$
MIZ043>046-050>051-056>058-064>065-071>073-077>080-220100-
SOUTHWEST LOWER MICHIGAN

CITY           SKY/WX    TMP DP  RH WIND       PRES   REMARKS
BATTLE CREEK   CLEAR     61  36  39 W12       30.00S
6HR MIN TEMP:  59; 6HR MAX TEMP:  63;

BENTON HARBOR  SUNNY     60  36  40 SW13      30.00F
6HR MIN TEMP:  53; 6HR MAX TEMP:  61;

BIG RAPIDS     CLOUDY    59  37  43 SW7       29.93S
6HR MIN TEMP:  59; 6HR MAX TEMP:  67;

COLDWATER      CLEAR     59  32  35 W10       30.00S
6HR MIN TEMP:  57; 6HR MAX TEMP:  63;

FREMONT        CLOUDY    58  33  38 SW6       29.95R
HOLLAND        SUNNY     59  38  45 SW15      29.98F
6HR MIN TEMP:  55; 6HR MAX TEMP:  62;

GRAND RAPIDS   PTCLDY    61  37  41 SW14      29.97F
6HR MIN TEMP:  60; 6HR MAX TEMP:  63;

IONIA          FAIR      61  36  38 W14G20    29.95S
KALAMAZOO      CLEAR     62  34  35 W9        30.00F
6HR MIN TEMP:  58; 6HR MAX TEMP:  64;

LUDINGTON      PTSUNNY   57  38  48 SW6       29.93S
6HR MIN TEMP:  56; 6HR MAX TEMP:  61;

MARSHALL       CLEAR     60  35  39 W7        29.99R
MOUNT PLEASANT MOCLDY    63  35  36 W10G16    29.93R
6HR MIN TEMP:  63; 6HR MAX TEMP:  69;

MUSKEGON       MOSUNNY   55  38  52 SW13      29.95F
6HR MIN TEMP:  55; 6HR MAX TEMP:  60;

SOUTH HAVEN    SUNNY     61  32  33 SW10      29.99F
$$
MIZ016>042-220100-
NORTHERN LOWER MICHIGAN

CITY           SKY/WX    TMP DP  RH WIND       PRES   REMARKS
ALPENA         CLEAR     60  30  32 N15G24    29.88R
6HR MIN TEMP:  60; 6HR MAX TEMP:  71;

BEAVER ISLAND  SUNNY     50  28  41 NW10      29.97S
6HR MIN TEMP:  50; 6HR MAX TEMP:  59;

BELLAIRE       MOSUNNY   56  29  36 NW7       29.96R
6HR MIN TEMP:  56; 6HR MAX TEMP:  64;

CADILLAC       CLOUDY    57  36  45 NW9       29.94R
CHARLEVOIX     SUNNY     49  33  54 NW5       30.00R
6HR MIN TEMP:  49; 6HR MAX TEMP:  59;

FRANKFORT      MOSUNNY   58  30  35 NE8       29.96R
GAYLORD        MOSUNNY   53  27  36 NW9G20    29.94R
6HR MIN TEMP:  53; 6HR MAX TEMP:  66;

HARBOR SPRINGS SUNNY     54  27  35 NW8G21    29.95R
HOUGHTON LAKE  MOCLDY    58  33  39 NW15      29.93R
6HR MIN TEMP:  58; 6HR MAX TEMP:  68;

MANISTEE       MOSUNNY   52  37  58 NW7       29.96R
OSCODA         PTCLDY    65  35  32 W15G22    29.86R
PELLSTON       SUNNY     54  29  38 NW14      29.95R
6HR MIN TEMP:  54; 6HR MAX TEMP:  64;

ROGERS CITY    CLEAR     54  30  40 NW17G23   29.91R
TRAVERSE CITY  CLOUDY    54  33  45 N7        29.97R
6HR MIN TEMP:  54; 6HR MAX TEMP:  69;

$$
MIZ007>008-015-220100-
EASTERN UPPER MICHIGAN

CITY           SKY/WX    TMP DP  RH WIND       PRES   REMARKS
KINROSS        SUNNY     50  27  40 NW16G24   29.93R
6HR MIN TEMP:  50; 6HR MAX TEMP:  59;

NEWBERRY       SUNNY     49  18  29 NW9G18    29.96R
6HR MIN TEMP:  49; 6HR MAX TEMP:  57;

S. S. MARIE    SUNNY     47  26  44 NW15G23   29.92S
6HR MIN TEMP:  47; 6HR MAX TEMP:  55;

$$
MIZ004>006-011>014-085-220100-
CENTRAL UPPER MICHIGAN

CITY           SKY/WX    TMP DP  RH WIND       PRES   REMARKS
MANISTIQUE     SUNNY     53  21  28 N15G21    29.97R
6HR MIN TEMP:  53; 6HR MAX TEMP:  62;

ESCANABA       SUNNY     57  21  24 N8G20     29.97R
6HR MIN TEMP:  57; 6HR MAX TEMP:  63;

MENOMINEE      SUNNY     55  34  44 E14G20    29.98R
6HR MIN TEMP:  55; 6HR MAX TEMP:  72;

SAWYER-GWINN   SUNNY     50  25  37 NE17      29.99R
$$
MIZ001>003-009>011-084-220100-
WESTERN UPPER MICHIGAN

CITY           SKY/WX    TMP DP  RH WIND       PRES   REMARKS
IRON MOUNTAIN  SUNNY     62  27  26 N12       29.95S
6HR MIN TEMP:  62; 6HR MAX TEMP:  70;

HOUGHTON       SUNNY     53  28  38 N6        30.01R
6HR MIN TEMP:  53; 6HR MAX TEMP:  59;

COPPER HARBOR    N/A     49  27  42 N7        30.02S
6HR MIN TEMP:  44; 6HR MAX TEMP:  52;

IRONWOOD       SUNNY     59  28  31 NW7       29.98F
6HR MIN TEMP:  55; 6HR MAX TEMP:  61;

$$

ABBREVIATIONS USED IN REMARKS
   TC - TEMPERATURE IN CELSIUS
  WCI - WIND CHILL INDEX
   HX - HEAT INDEX
  VSB - VISIBILITY




USA.gov is the U.S. government's official web portal to all federal, state and local government web resources and services.